Change the Weather History Date:

Friday, January 4, 2013

  Actual Average Record
Temperature  
Mean Temperature 21 °F 13 °F  
Max Temperature 32 °F 22 °F 39 °F (1992)
Min Temperature 10 °F 4 °F -28 °F (1911)
Degree Days  
Heating Degree Days 44 52  
Month to date heating degree days 203 208  
Since 1 July heating degree days 3633 3834  
Cooling Degree Days 0 0  
Month to date cooling degree days 0 0  
Year to date cooling degree days 0 0  
Moisture  
Dew Point 12 °F    
Average Humidity 73    
Maximum Humidity 92    
Minimum Humidity 54    
Precipitation  
Precipitation 0.00 in 0.03 in 1.12 in (1939)
Month to date precipitation T 0.15  
Year to date precipitation T 0.15  
Snow  
Snow 0.00 in - 9.00 in (1971)
Month to date snowfall T  
Since 1 July snowfall 17.7  
Snow Depth 5.00 in    
Sea Level Pressure  
Sea Level Pressure 30.04 in    
Wind  
Wind Speed 10 mph (WSW)    
Max Wind Speed 17 mph    
Max Gust Speed 25 mph    
Visibility 10 miles    
Events      
T = Trace of Precipitation, MM = Missing Value Source: NWS Daily Summary

Daily Weather History Graph

Daily Weather History Graph

Search for Another Location

Airport or City:

Trip Planner

Search our weather history database for the weather conditions in past years. The results will help you decide how hot, cold, wet, or windy it might be!

Date:

Astronomy

Jan. 04, 2013 Rise Set
Actual Time 7:38 AM CST 4:27 PM CST
Civil Twilight 7:04 AM CST 5:01 PM CST
Nautical Twilight 6:27 AM CST 5:39 PM CST
Astronomical Twilight 5:51 AM CST 6:15 PM CST
Moon No Moon Rise 10:57 AM CST (1/4)
Length of Visible Light 9h 57m
Length of Day
8h 49m
Waning Gibbous, 55% of the Moon is Illuminated
Jan 4
Waning Gibbous
Jan 4
Last Quarter
Jan 11
New
Jan 18
First Quarter
Jan 26
Full

Hourly Weather History & Observations

Time (CST) Temp. Windchill Dew Point Humidity Pressure Visibility Wind Dir Wind Speed Gust Speed Precip Events Conditions
12:53 AM 10.9 °F -4.1 °F 7.0 °F 84% 29.97 in 10.0 mi WSW 12.7 mph 21.9 mph N/A   Clear
1:53 AM 12.0 °F -2.7 °F 8.1 °F 84% 29.97 in 10.0 mi WSW 12.7 mph - N/A   Clear
2:53 AM 10.9 °F -1.8 °F 7.0 °F 84% 29.98 in 10.0 mi WSW 9.2 mph - N/A   Clear
3:53 AM 10.0 °F -4.5 °F 7.0 °F 87% 29.97 in 10.0 mi WSW 11.5 mph - N/A   Clear
4:53 AM 10.0 °F -2.9 °F 7.0 °F 87% 29.97 in 10.0 mi WSW 9.2 mph - N/A   Clear
6:53 AM 10.9 °F -3.4 °F 8.1 °F 88% 29.97 in 10.0 mi West 11.5 mph - N/A   Clear
7:53 AM 10.9 °F -3.4 °F 8.1 °F 88% 29.99 in 9.0 mi West 11.5 mph - N/A   Clear
8:53 AM 12.9 °F -2.2 °F 9.0 °F 84% 30.00 in 10.0 mi West 13.8 mph - N/A   Clear
9:53 AM 16.0 °F 1.7 °F 10.0 °F 77% 30.02 in 10.0 mi West 13.8 mph - N/A   Clear
10:53 AM 19.9 °F 8.6 °F 12.9 °F 74% 30.01 in 10.0 mi WSW 10.4 mph - N/A   Clear
11:53 AM 25.0 °F 12.6 °F 15.1 °F 66% 30.00 in 10.0 mi West 15.0 mph - N/A   Clear
12:53 PM 28.9 °F 18.2 °F 17.1 °F 61% 29.99 in 10.0 mi West 13.8 mph - N/A   Clear
1:53 PM 30.9 °F 21.7 °F 18.0 °F 59% 29.99 in 10.0 mi West 11.5 mph - N/A   Clear
2:53 PM 32.0 °F 23.0 °F 18.0 °F 56% 30.01 in 10.0 mi West 11.5 mph - N/A   Clear
3:53 PM 30.9 °F 22.2 °F 17.1 °F 57% 30.04 in 10.0 mi West 10.4 mph - N/A   Clear
4:53 PM 25.0 °F 14.8 °F 15.1 °F 66% 30.06 in 10.0 mi WSW 10.4 mph - N/A   Clear
5:53 PM 25.0 °F 14.2 °F 15.1 °F 66% 30.10 in 10.0 mi West 11.5 mph - N/A   Clear
6:53 PM 23.0 °F 12.4 °F 15.1 °F 72% 30.11 in 10.0 mi West 10.4 mph - N/A   Clear
7:53 PM 19.9 °F 11.1 °F 12.0 °F 71% 30.13 in 10.0 mi West 6.9 mph - N/A   Clear
8:53 PM 17.1 °F 8.7 °F 12.0 °F 81% 30.15 in 10.0 mi WSW 5.8 mph - N/A   Clear
9:53 PM 17.1 °F 8.7 °F 12.0 °F 81% 30.14 in 10.0 mi West 5.8 mph - N/A   Clear
10:53 PM 12.9 °F - 10.0 °F 88% 30.17 in 10.0 mi Calm Calm - N/A   Clear
11:53 PM 12.9 °F 5.2 °F 10.0 °F 88% 30.16 in 10.0 mi WSW 4.6 mph - N/A   Clear